LSP082 SCCI-SCEL

Flight info

Callsign LSP082
Flight time N/A
Altitude 36000
Route SIRUN4A SIRUN UQ802 CAUKE/N0489F380 UQ802 EROLO EROLO7F
Aircraft B77W/H-SDE1E2E3FGHIJ2J3J4J5M1RWXY/LB1D1

Departure

Time 2026-05-06 23:34
Airport President Carlos Ibáñez International Airport (SCCI)

Arrival

Time N/A
Airport Comodoro Arturo Merino Benítez International Airport (SCEL)
Time Latitude Longitude Altitude Speed Heading
2026-05-06 23:16 -53.00445 -70.84670 178 ft 0 kts 225°
2026-05-06 23:22 -53.00441 -70.84664 178 ft 3 kts 225°
2026-05-06 23:23 -53.00426 -70.84640 176 ft 2 kts 220°
2026-05-06 23:23 -53.00414 -70.84622 176 ft 3 kts 188°
2026-05-06 23:23 -53.00402 -70.84623 176 ft 3 kts 158°
2026-05-06 23:23 -53.00391 -70.84635 176 ft 3 kts 84°
2026-05-06 23:24 -53.00396 -70.84669 176 ft 3 kts 75°
2026-05-06 23:24 -53.00399 -70.84695 177 ft 0 kts 90°
2026-05-06 23:27 -53.00399 -70.84680 176 ft 3 kts 88°
2026-05-06 23:27 -53.00389 -70.84620 176 ft 7 kts 75°
2026-05-06 23:27 -53.00383 -70.84530 178 ft 8 kts 85°
2026-05-06 23:28 -53.00381 -70.84440 178 ft 8 kts 89°
2026-05-06 23:28 -53.00353 -70.84375 178 ft 8 kts
2026-05-06 23:28 -53.00298 -70.84377 178 ft 8 kts 358°
2026-05-06 23:28 -53.00250 -70.84351 178 ft 8 kts 54°
2026-05-06 23:29 -53.00244 -70.84261 177 ft 8 kts 92°
2026-05-06 23:29 -53.00245 -70.84199 176 ft 8 kts 90°
2026-05-06 23:29 -53.00244 -70.84108 176 ft 8 kts 89°
2026-05-06 23:29 -53.00243 -70.84016 176 ft 8 kts 89°
2026-05-06 23:30 -53.00242 -70.83925 176 ft 8 kts 87°
2026-05-06 23:30 -53.00239 -70.83835 176 ft 8 kts 87°
2026-05-06 23:30 -53.00236 -70.83713 176 ft 8 kts 88°
2026-05-06 23:30 -53.00235 -70.83621 176 ft 8 kts 89°
2026-05-06 23:31 -53.00236 -70.83530 177 ft 8 kts 91°
2026-05-06 23:31 -53.00215 -70.83453 178 ft 8 kts 36°
2026-05-06 23:31 -53.00181 -70.83430 178 ft 8 kts 12°
2026-05-06 23:31 -53.00126 -70.83418 178 ft 8 kts 360°
2026-05-06 23:32 -53.00078 -70.83452 178 ft 8 kts 304°
2026-05-06 23:32 -53.00067 -70.83542 177 ft 8 kts 272°
2026-05-06 23:32 -53.00067 -70.83664 177 ft 8 kts 270°
2026-05-06 23:32 -53.00068 -70.83756 178 ft 8 kts 267°
2026-05-06 23:33 -53.00070 -70.83818 177 ft 8 kts 267°
2026-05-06 23:33 -53.00074 -70.84209 178 ft 71 kts 268°
2026-05-06 23:33 -53.00090 -70.85444 175 ft 141 kts 269°
2026-05-06 23:33 -53.00115 -70.87374 226 ft 189 kts 268°
2026-05-06 23:34 -53.00131 -70.89437 1073 ft 175 kts 274°
2026-05-06 23:34 -52.99616 -70.91290 1575 ft 188 kts 316°
2026-05-06 23:34 -52.98598 -70.92777 2026 ft 206 kts 317°
2026-05-06 23:34 -52.97493 -70.94536 2303 ft 233 kts 315°
2026-05-06 23:35 -52.96709 -70.95821 2636 ft 244 kts 315°